Location: ????
(33.1659°N, 35.6604°E)
Time: 07:09:41
(UTC+00:00)

Cosmos 2056 Rocket - Pass Details

Date: 20 September 2019
Orbit: 742 x 800 km, 74.0° (Epoch: 18 October)

Event Time Altitude Azimuth Distance (km) Brightness Sun altitude
Rises 16:52:03 0° 192° (SSW) 3,286 6.8 -16.3°
Reaches altitude 10° 16:54:26 10° 191° (SSW) 2,362 6.0 -16.8°
Maximum altitude 16:59:49 81° 105° (ESE) 814 3.5 -17.9°
Drops below altitude 10° 17:05:14 10° 19° (NNE) 2,373 6.0 -19.0°
Sets 17:07:38 0° 19° (NNE) 3,302 6.8 -19.5°
